AHY6731 VABB-OPKC

Flight info

Callsign AHY6731
Flight time 1h 9m
Altitude 26000
Route ANOLI2A EXOLU B342 TAXUN/N0479F340 N519 TARAB/N0434F260 B342 SAPNA
Aircraft A346/H-SDE2E3FGHIJ3J4J5M1RWXY/LB1D1

Departure

Time 2026-05-09 09:42
Airport Chhatrapati Shivaji Maharaj International Airport (VABB)

Arrival

Time 2026-05-09 10:52
Airport Jinnah International Airport (OPKC)
Time Latitude Longitude Altitude Speed Heading
2026-05-09 09:09 19.09313 72.87459 43 ft 0 kts 220°
2026-05-09 09:31 19.09329 72.87474 43 ft 4 kts 220°
2026-05-09 09:31 19.09350 72.87492 39 ft 4 kts 220°
2026-05-09 09:31 19.09367 72.87508 40 ft 4 kts 233°
2026-05-09 09:32 19.09369 72.87544 38 ft 4 kts 306°
2026-05-09 09:32 19.09364 72.87551 41 ft 0 kts 310°
2026-05-09 09:32 19.09364 72.87552 41 ft 0 kts 310°
2026-05-09 09:34 19.09364 72.87551 41 ft 0 kts 310°
2026-05-09 09:36 19.09375 72.87386 43 ft 16 kts 216°
2026-05-09 09:36 19.09265 72.87314 43 ft 20 kts 222°
2026-05-09 09:36 19.09126 72.87275 43 ft 21 kts 181°
2026-05-09 09:37 19.09060 72.87347 43 ft 16 kts 105°
2026-05-09 09:37 19.09055 72.87477 44 ft 20 kts 90°
2026-05-09 09:37 19.09055 72.87633 45 ft 23 kts 89°
2026-05-09 09:37 19.09057 72.87793 46 ft 18 kts 89°
2026-05-09 09:38 19.09059 72.87908 46 ft 16 kts 89°
2026-05-09 09:38 19.09060 72.87944 46 ft 0 kts 89°
2026-05-09 09:38 19.09060 72.87945 46 ft 1 kts 89°
2026-05-09 09:38 19.09060 72.87962 47 ft 4 kts 89°
2026-05-09 09:39 19.09056 72.88005 47 ft 6 kts 112°
2026-05-09 09:39 19.09033 72.88031 47 ft 0 kts 143°
2026-05-09 09:39 19.09028 72.88034 47 ft 3 kts 153°
2026-05-09 09:40 19.08993 72.88045 46 ft 7 kts 169°
2026-05-09 09:40 19.08927 72.88033 45 ft 12 kts 213°
2026-05-09 09:40 19.08888 72.87942 46 ft 16 kts 266°
2026-05-09 09:40 19.08887 72.87916 46 ft 0 kts 268°
2026-05-09 09:41 19.08887 72.87915 46 ft 0 kts 268°
2026-05-09 09:42 19.08887 72.87914 46 ft 1 kts 268°
2026-05-09 09:42 19.08884 72.87673 44 ft 81 kts 269°
2026-05-09 09:42 19.08869 72.86755 64 ft 161 kts 269°
2026-05-09 09:42 19.08842 72.85506 820 ft 174 kts 270°
2026-05-09 09:43 19.08827 72.84223 1964 ft 175 kts 272°
2026-05-09 09:43 19.08801 72.82922 2780 ft 181 kts 274°
2026-05-09 09:43 19.08797 72.81530 3316 ft 197 kts 274°
2026-05-09 09:43 19.08789 72.80037 3927 ft 207 kts 273°
2026-05-09 09:44 19.08767 72.78504 4669 ft 210 kts 273°
2026-05-09 09:44 19.08767 72.76940 5347 ft 215 kts 280°
2026-05-09 09:44 19.09366 72.75524 5951 ft 217 kts 311°
2026-05-09 09:44 19.10473 72.74364 6455 ft 231 kts 321°
2026-05-09 09:45 19.11728 72.73199 6896 ft 250 kts 322°
2026-05-09 09:45 19.13103 72.71903 7406 ft 281 kts 320°
2026-05-09 09:45 19.14578 72.70455 8537 ft 293 kts 318°
2026-05-09 09:45 19.16051 72.68946 9989 ft 296 kts 317°
2026-05-09 09:46 19.17547 72.67401 11196 ft 308 kts 317°
2026-05-09 09:46 19.19118 72.65761 12134 ft 327 kts 317°
2026-05-09 09:46 19.20782 72.64014 12982 ft 347 kts 317°
2026-05-09 09:46 19.22544 72.62170 13753 ft 366 kts 316°
2026-05-09 09:47 19.24377 72.60248 14387 ft 385 kts 316°
2026-05-09 09:47 19.26351 72.58163 14989 ft 404 kts 317°
2026-05-09 09:47 19.28350 72.56052 15711 ft 416 kts 317°
2026-05-09 09:47 19.30408 72.53877 16717 ft 420 kts 317°
2026-05-09 09:48 19.32489 72.51680 17767 ft 424 kts 317°
2026-05-09 09:48 19.34586 72.49459 18638 ft 429 kts 317°
2026-05-09 09:48 19.36713 72.47213 19461 ft 433 kts 317°
2026-05-09 09:48 19.38858 72.44950 20317 ft 436 kts 317°
2026-05-09 09:49 19.41013 72.42672 21148 ft 440 kts 317°
2026-05-09 09:49 19.43187 72.40370 21960 ft 443 kts 317°
2026-05-09 09:49 19.45370 72.38057 22863 ft 443 kts 317°
2026-05-09 09:49 19.47536 72.35760 23881 ft 438 kts 318°
2026-05-09 09:50 19.49694 72.33477 24629 ft 440 kts 317°
2026-05-09 09:50 19.51873 72.31172 25194 ft 446 kts 317°
2026-05-09 09:50 19.54103 72.28813 25480 ft 459 kts 317°
2026-05-09 09:50 19.56387 72.26393 25906 ft 467 kts 317°
2026-05-09 09:51 19.58697 72.23943 26507 ft 471 kts 317°
2026-05-09 09:51 19.61027 72.21471 27112 ft 475 kts 317°
2026-05-09 09:51 19.63372 72.18979 27702 ft 479 kts 316°
2026-05-09 09:51 19.65737 72.16465 28283 ft 483 kts 316°
2026-05-09 09:52 19.68124 72.13927 28876 ft 487 kts 316°
2026-05-09 09:52 19.70528 72.11369 29489 ft 490 kts 316°
2026-05-09 09:52 19.72934 72.08808 30263 ft 488 kts 316°
2026-05-09 09:52 19.75322 72.06266 31052 ft 484 kts 316°
2026-05-09 09:53 19.77695 72.03739 31836 ft 482 kts 315°
2026-05-09 09:53 19.80061 72.01217 32570 ft 481 kts 315°
2026-05-09 09:53 19.82428 71.98693 33200 ft 483 kts 315°
2026-05-09 09:53 19.84809 71.96152 33675 ft 487 kts 315°
2026-05-09 09:54 19.87204 71.93595 33813 ft 488 kts 315°
2026-05-09 09:54 19.91993 71.88476 33804 ft 488 kts 315°
2026-05-09 09:55 19.96782 71.83356 33806 ft 489 kts 315°
2026-05-09 09:55 20.01597 71.78204 33806 ft 489 kts 315°
2026-05-09 09:56 20.06386 71.73074 33802 ft 488 kts 315°
2026-05-09 09:56 20.11138 71.67979 33805 ft 488 kts 315°
2026-05-09 09:57 20.15957 71.62807 33805 ft 488 kts 315°
2026-05-09 09:57 20.20722 71.57684 33796 ft 487 kts 314°
2026-05-09 09:58 20.25327 71.52389 33802 ft 487 kts 313°
2026-05-09 09:58 20.29862 71.47078 33799 ft 488 kts 313°
2026-05-09 09:59 20.34428 71.41718 33799 ft 488 kts 313°
2026-05-09 09:59 20.39015 71.36331 33794 ft 487 kts 313°
2026-05-09 10:00 20.43542 71.31013 33790 ft 487 kts 313°
2026-05-09 10:00 20.48102 71.25652 33798 ft 487 kts 312°
2026-05-09 10:01 20.52655 71.20291 33796 ft 487 kts 312°
2026-05-09 10:01 20.57208 71.14925 33797 ft 487 kts 312°
2026-05-09 10:02 20.61761 71.09554 33795 ft 487 kts 312°
2026-05-09 10:02 20.66313 71.04180 33796 ft 487 kts 312°
2026-05-09 10:03 20.70859 70.98808 33796 ft 487 kts 312°
2026-05-09 10:03 20.75394 70.93450 33793 ft 485 kts 312°
2026-05-09 10:04 20.79928 70.88078 33796 ft 486 kts 312°
2026-05-09 10:04 20.84470 70.82692 33796 ft 488 kts 312°
2026-05-09 10:05 20.89015 70.77300 33794 ft 488 kts 312°
2026-05-09 10:05 20.93521 70.71948 33799 ft 486 kts 311°
2026-05-09 10:06 20.98054 70.66560 33795 ft 488 kts 312°
2026-05-09 10:06 21.02594 70.61158 33796 ft 486 kts 311°
2026-05-09 10:07 21.07126 70.55760 33799 ft 486 kts 311°
2026-05-09 10:07 21.11639 70.50378 33796 ft 484 kts 311°
2026-05-09 10:08 21.16140 70.45004 33802 ft 487 kts 311°
2026-05-09 10:08 21.20672 70.39588 33806 ft 486 kts 311°
2026-05-09 10:09 21.25176 70.34197 33800 ft 486 kts 311°
2026-05-09 10:09 21.29634 70.28732 33798 ft 487 kts 309°
2026-05-09 10:10 21.33658 70.22879 33797 ft 487 kts 303°
2026-05-09 10:10 21.37224 70.16698 33791 ft 487 kts 301°
2026-05-09 10:11 21.40704 70.10476 33796 ft 485 kts 301°
2026-05-09 10:11 21.44159 70.04293 33800 ft 487 kts 301°
2026-05-09 10:12 21.47668 69.98015 33794 ft 487 kts 301°
2026-05-09 10:12 21.51135 69.91809 33799 ft 486 kts 301°
2026-05-09 10:13 21.54620 69.85565 33793 ft 486 kts 301°
2026-05-09 10:13 21.58087 69.79340 33795 ft 486 kts 301°
2026-05-09 10:14 21.61609 69.73134 33794 ft 486 kts 303°
2026-05-09 10:14 21.65588 69.67232 33795 ft 487 kts 308°
2026-05-09 10:15 21.70083 69.61773 33797 ft 487 kts 313°
2026-05-09 10:15 21.75004 69.56775 33795 ft 487 kts 317°
2026-05-09 10:16 21.80035 69.51884 33799 ft 487 kts 317°
2026-05-09 10:16 21.85074 69.46983 33799 ft 488 kts 317°
2026-05-09 10:17 21.90116 69.42068 33796 ft 489 kts 317°
2026-05-09 10:17 21.95160 69.37143 33805 ft 489 kts 317°
2026-05-09 10:18 22.00197 69.32218 33804 ft 488 kts 317°
2026-05-09 10:18 22.05236 69.27287 33804 ft 488 kts 317°
2026-05-09 10:19 22.10262 69.22366 33810 ft 487 kts 316°
2026-05-09 10:19 22.15274 69.17451 33803 ft 487 kts 316°
2026-05-09 10:20 22.20294 69.12523 33814 ft 488 kts 316°
2026-05-09 10:20 22.25313 69.07591 33810 ft 488 kts 316°
2026-05-09 10:21 22.30332 69.02654 33812 ft 488 kts 316°
2026-05-09 10:21 22.35342 68.97723 33818 ft 487 kts 316°
2026-05-09 10:22 22.40340 68.92797 33814 ft 486 kts 316°
2026-05-09 10:22 22.45339 68.87864 33810 ft 486 kts 316°
2026-05-09 10:23 22.50303 68.82961 33808 ft 487 kts 316°
2026-05-09 10:23 22.55303 68.78017 33812 ft 487 kts 316°
2026-05-09 10:24 22.60305 68.73067 33818 ft 487 kts 316°
2026-05-09 10:24 22.65306 68.68116 33817 ft 486 kts 316°
2026-05-09 10:25 22.70292 68.63170 33798 ft 486 kts 316°
2026-05-09 10:25 22.71973 68.61501 33582 ft 486 kts 316°
2026-05-09 10:25 22.74461 68.59028 33185 ft 483 kts 316°
2026-05-09 10:25 22.76935 68.56571 32813 ft 480 kts 316°
2026-05-09 10:26 22.79387 68.54132 32445 ft 478 kts 316°
2026-05-09 10:26 22.81811 68.51722 32083 ft 479 kts 316°
2026-05-09 10:26 22.84271 68.49274 31713 ft 481 kts 316°
2026-05-09 10:26 22.86745 68.46811 31428 ft 482 kts 316°
2026-05-09 10:27 22.89219 68.44348 31194 ft 482 kts 316°
2026-05-09 10:27 22.91692 68.41884 30963 ft 483 kts 316°
2026-05-09 10:27 22.94171 68.39412 30723 ft 484 kts 316°
2026-05-09 10:27 22.96649 68.36940 30496 ft 485 kts 316°
2026-05-09 10:28 22.99139 68.34455 30268 ft 486 kts 316°
2026-05-09 10:28 23.01634 68.31965 30041 ft 486 kts 316°
2026-05-09 10:28 23.04126 68.29475 29802 ft 487 kts 316°
2026-05-09 10:28 23.06623 68.26979 29531 ft 488 kts 317°
2026-05-09 10:29 23.09120 68.24482 29271 ft 488 kts 317°
2026-05-09 10:29 23.11620 68.21981 29006 ft 488 kts 317°
2026-05-09 10:29 23.14112 68.19485 28753 ft 486 kts 317°
2026-05-09 10:29 23.16590 68.17003 28495 ft 484 kts 317°
2026-05-09 10:30 23.19066 68.14522 28248 ft 482 kts 317°
2026-05-09 10:30 23.21528 68.12052 27985 ft 480 kts 317°
2026-05-09 10:30 23.23978 68.09594 27774 ft 478 kts 317°
2026-05-09 10:30 23.26419 68.07144 27574 ft 477 kts 317°
2026-05-09 10:31 23.28858 68.04695 27378 ft 477 kts 317°
2026-05-09 10:31 23.31295 68.02246 27179 ft 476 kts 317°
2026-05-09 10:31 23.33718 67.99810 26954 ft 475 kts 317°
2026-05-09 10:31 23.36138 67.97374 26708 ft 473 kts 317°
2026-05-09 10:32 23.38554 67.94942 26471 ft 472 kts 317°
2026-05-09 10:32 23.40964 67.92513 26231 ft 470 kts 317°
2026-05-09 10:32 23.43358 67.90101 25986 ft 468 kts 318°
2026-05-09 10:32 23.45827 67.87788 25757 ft 466 kts 322°
2026-05-09 10:33 23.48443 67.85695 25523 ft 465 kts 326°
2026-05-09 10:33 23.51186 67.83835 25287 ft 463 kts 330°
2026-05-09 10:33 23.54031 67.82220 25052 ft 460 kts 335°
2026-05-09 10:33 23.56965 67.80853 24843 ft 457 kts 339°
2026-05-09 10:34 23.59966 67.79693 24623 ft 456 kts 341°
2026-05-09 10:34 23.65951 67.77502 24169 ft 453 kts 342°
2026-05-09 10:34 23.68894 67.76431 23956 ft 451 kts 342°
2026-05-09 10:35 23.71871 67.75342 23735 ft 451 kts 342°
2026-05-09 10:35 23.74884 67.74239 23517 ft 451 kts 342°
2026-05-09 10:35 23.77845 67.73150 23282 ft 448 kts 342°
2026-05-09 10:35 23.80762 67.72077 23025 ft 447 kts 342°
2026-05-09 10:36 23.83738 67.70978 22760 ft 444 kts 342°
2026-05-09 10:36 23.86663 67.69899 22497 ft 443 kts 342°
2026-05-09 10:36 23.89541 67.68838 22254 ft 442 kts 342°
2026-05-09 10:36 23.92456 67.67763 21999 ft 441 kts 342°
2026-05-09 10:37 23.95357 67.66693 21740 ft 440 kts 343°
2026-05-09 10:37 23.98245 67.65624 21502 ft 437 kts 343°
2026-05-09 10:37 24.01131 67.64559 21257 ft 436 kts 343°
2026-05-09 10:37 24.03993 67.63501 21012 ft 433 kts 343°
2026-05-09 10:38 24.06840 67.62448 20763 ft 431 kts 343°
2026-05-09 10:38 24.09684 67.61401 20524 ft 431 kts 343°
2026-05-09 10:38 24.12523 67.60351 20285 ft 430 kts 343°
2026-05-09 10:38 24.15359 67.59304 20046 ft 430 kts 343°
2026-05-09 10:39 24.18179 67.58258 19770 ft 424 kts 343°
2026-05-09 10:39 24.20935 67.57233 19421 ft 413 kts 343°
2026-05-09 10:39 24.23619 67.56238 19107 ft 402 kts 343°
2026-05-09 10:39 24.26261 67.55335 18737 ft 394 kts 348°
2026-05-09 10:40 24.28904 67.54667 18359 ft 386 kts 350°
2026-05-09 10:40 24.31503 67.54060 17851 ft 378 kts 350°
2026-05-09 10:40 24.34049 67.53460 17362 ft 369 kts 350°
2026-05-09 10:40 24.36525 67.52863 16931 ft 360 kts 350°
2026-05-09 10:41 24.38952 67.52273 16454 ft 354 kts 350°
2026-05-09 10:41 24.41325 67.51690 16063 ft 345 kts 351°
2026-05-09 10:41 24.43641 67.51119 15692 ft 337 kts 351°
2026-05-09 10:41 24.45910 67.50560 15279 ft 331 kts 351°
2026-05-09 10:42 24.48138 67.50007 14834 ft 327 kts 350°
2026-05-09 10:42 24.50329 67.49458 14487 ft 320 kts 350°
2026-05-09 10:42 24.52479 67.48919 14104 ft 314 kts 350°
2026-05-09 10:42 24.54595 67.48393 13693 ft 307 kts 351°
2026-05-09 10:43 24.56651 67.47878 13182 ft 298 kts 351°
2026-05-09 10:43 24.58641 67.47384 12691 ft 288 kts 350°
2026-05-09 10:43 24.60567 67.46906 12256 ft 279 kts 351°
2026-05-09 10:43 24.62436 67.46441 11918 ft 275 kts 349°
2026-05-09 10:44 24.64307 67.45975 11651 ft 276 kts 349°
2026-05-09 10:44 24.66168 67.45498 11415 ft 273 kts 350°
2026-05-09 10:44 24.68024 67.45037 11063 ft 272 kts 349°
2026-05-09 10:44 24.69862 67.44576 11090 ft 271 kts 350°
2026-05-09 10:45 24.71705 67.44121 10894 ft 273 kts 350°
2026-05-09 10:46 24.80095 67.42024 5740 ft 344 kts 347°
2026-05-09 10:46 24.82454 67.41434 4566 ft 348 kts 346°
2026-05-09 10:46 24.84786 67.40854 3718 ft 338 kts 344°
2026-05-09 10:46 24.87025 67.40286 3215 ft 320 kts 344°
2026-05-09 10:47 24.89106 67.39711 2987 ft 295 kts 341°
2026-05-09 10:47 24.90985 67.39153 2976 ft 266 kts 342°
2026-05-09 10:47 24.92719 67.38626 2980 ft 260 kts 341°
2026-05-09 10:47 24.94457 67.38094 2974 ft 258 kts 340°
2026-05-09 10:48 24.95995 67.37168 2962 ft 250 kts 311°
2026-05-09 10:48 24.96867 67.35562 2978 ft 241 kts 281°
2026-05-09 10:48 24.96850 67.33827 2932 ft 219 kts 253°
2026-05-09 10:48 24.96151 67.32391 2680 ft 211 kts 230°
2026-05-09 10:49 24.95100 67.31326 2484 ft 201 kts 221°
2026-05-09 10:49 24.94188 67.30223 2220 ft 191 kts 246°
2026-05-09 10:49 24.93716 67.28885 2015 ft 184 kts 254°
2026-05-09 10:49 24.93405 67.27567 1893 ft 172 kts 255°
2026-05-09 10:50 24.93122 67.26339 1704 ft 158 kts 254°
2026-05-09 10:50 24.92841 67.25209 1477 ft 148 kts 255°
2026-05-09 10:50 24.92574 67.24157 1293 ft 139 kts 255°
2026-05-09 10:50 24.92307 67.23109 1146 ft 145 kts 254°
2026-05-09 10:51 24.92044 67.22061 1010 ft 138 kts 251°
2026-05-09 10:51 24.91788 67.21058 777 ft 133 kts 250°
2026-05-09 10:51 24.91526 67.20047 586 ft 143 kts 255°
2026-05-09 10:51 24.91258 67.18980 451 ft 142 kts 254°
2026-05-09 10:52 24.91000 67.17950 253 ft 137 kts 251°
2026-05-09 10:52 24.90752 67.16986 111 ft 114 kts 253°
2026-05-09 10:52 24.90609 67.16420 106 ft 48 kts 254°
2026-05-09 10:52 24.90520 67.16085 105 ft 43 kts 253°
2026-05-09 10:53 24.90454 67.15835 107 ft 21 kts 251°
2026-05-09 10:53 24.90362 67.15774 105 ft 18 kts 173°
2026-05-09 10:53 24.90269 67.15848 106 ft 18 kts 79°
2026-05-09 10:53 24.90305 67.15995 107 ft 22 kts 74°
2026-05-09 10:54 24.90344 67.16168 106 ft 25 kts 74°
2026-05-09 10:54 24.90375 67.16297 107 ft 11 kts 88°
2026-05-09 10:54 24.90320 67.16378 108 ft 16 kts 131°
2026-05-09 10:54 24.90315 67.16509 108 ft 20 kts 73°
2026-05-09 10:55 24.90336 67.16587 107 ft 22 kts 73°
2026-05-09 10:55 24.90326 67.16683 107 ft 16 kts 135°
2026-05-09 10:56 24.90260 67.16737 109 ft 0 kts 143°
2026-05-09 10:56 24.90255 67.16741 110 ft 0 kts 143°
2026-05-09 10:56 24.90251 67.16745 109 ft 2 kts 146°
2026-05-09 10:56 24.90246 67.16745 109 ft 1 kts 186°
2026-05-09 10:57 24.90234 67.16741 109 ft 4 kts 200°
2026-05-09 10:57 24.90212 67.16719 110 ft 6 kts 240°
2026-05-09 10:57 24.90201 67.16696 109 ft 1 kts 241°
2026-05-09 10:57 24.90198 67.16689 109 ft 0 kts 238°
2026-05-09 10:58 24.90194 67.16683 108 ft 0 kts 239°
2026-05-09 10:58 24.90193 67.16681 108 ft 0 kts 239°